Wind_Speed
23 22 21 21 17 15 15 16 16 16 15 14 13 11 10 8 7 6 5 4 3 2 3 3 5 6 8 9 10 11 13 14 13 13 14 14 14 14 14 13 12 12 11 11 11 10 10 10 10 10 9 9 9 9 9 8 8 8 9 13 15 15 14 13 12 15 15 12 10 11 13 14 15 17 19 22 23 23 22 21 20 20 20 18 17 16 16 17
19 18 18 17 16 16 16 16 15 14 13 11 10 8 7 5 4 3 3 3 4 5 5 6 7 8 10 11 11 12 14 15 13 11 12 11 11 10 10 10 10 9 9 9 9 9 9 10 10 8 8 9 9 10 9 8 9 9 10 13 14 13 13 13 13 16 15 14 14 16 18 19 21 22 24 26 26 25 24 22 22 21 20 19 17 17 17 17
16 17 18 17 17 16 15 14 13 11 10 8 7 5 4 4 4 4 5 6 6 7 7 7 8 8 9 10 10 11 13 13 10 7 7 8 8 8 9 9 8 8 8 8 8 7 7 9 9 7 7 7 8 9 8 8 10 11 13 15 13 13 14 14 15 17 17 18 19 20 22 24 25 26 28 29 28 27 24 23 22 20 19 19 18 18 18 18
17 18 18 17 16 14 13 11 10 8 7 5 4 3 3 4 6 7 8 8 8 8 7 6 5 5 6 6 7 8 10 10 8 6 6 7 8 9 9 8 8 8 8 8 7 6 6 7 7 7 7 5 6 8 7 8 8 10 13 14 13 14 16 16 17 18 19 21 22 23 25 27 29 29 30 30 30 28 25 24 22 20 19 19 19 20 19 19
18 17 17 15 13 12 10 8 7 5 4 3 3 3 4 6 7 9 9 8 7 5 4 3 3 3 4 5 5 6 7 7 6 7 8 8 9 9 9 9 9 9 9 8 7 7 6 6 6 6 6 5 4 7 8 8 8 11 14 14 14 15 17 18 19 20 21 23 25 27 29 29 31 31 29 29 29 28 27 25 23 21 20 19 20 21 21 21
17 15 14 12 10 9 7 5 4 2 2 3 4 5 6 8 9 9 8 5 4 3 2 2 3 3 4 4 5 6 5 4 6 8 7 8 9 10 10 10 10 10 10 9 8 8 7 7 7 6 6 4 3 5 6 9 12 14 16 16 16 16 17 20 21 23 23 24 25 26 28 28 29 29 28 27 27 27 27 27 25 23 22 21 21 22 22 22
14 12 11 9 7 5 3 2 1 2 4 5 7 8 9 9 8 7 5 3 3 2 2 2 3 3 4 4 5 6 4 3 6 7 6 8 10 11 10 10 10 11 11 10 9 8 7 7 7 7 8 5 4 4 5 9 14 14 15 18 19 19 20 21 22 23 24 24 24 25 26 27 27 28 28 27 26 26 27 27 27 25 24 23 22 22 22 22
11 9 8 6 4 2 1 2 4 6 7 8 9 9 9 7 5 4 3 3 3 2 2 2 3 3 4 4 6 7 4 4 7 8 8 10 12 12 11 10 10 10 10 10 10 9 8 8 8 9 9 7 7 8 8 10 12 14 17 22 24 24 23 22 22 22 23 24 25 25 26 27 27 28 28 27 26 26 26 27 27 26 25 24 23 23 23 23
8 6 5 3 1 2 4 6 8 8 9 9 8 7 5 3 3 3 3 3 3 2 2 3 3 3 4 5 7 8 6 7 9 9 10 11 13 12 10 9 9 9 9 8 9 8 8 8 8 10 9 8 9 11 13 14 15 18 21 24 25 25 24 24 23 23 24 24 25 26 27 27 26 28 29 26 25 25 25 25 26 26 26 25 25 25 25 25
5 4 3 2 3 5 7 8 8 8 7 5 4 2 2 3 4 3 3 4 3 2 2 3 3 4 4 6 8 8 8 9 9 9 10 11 13 12 10 10 10 9 9 7 7 7 7 7 8 9 8 9 12 13 15 16 18 20 22 23 24 24 25 25 24 23 23 23 24 25 25 25 26 27 26 23 23 23 22 23 24 25 25 25 25 25 25 25
4 3 3 4 6 7 7 6 6 5 4 3 3 4 5 5 4 4 4 4 3 2 2 3 3 3 4 6 7 8 8 9 9 10 11 12 12 12 11 11 10 10 9 7 7 7 6 6 8 9 8 10 13 14 15 16 17 18 19 20 21 22 22 23 22 20 21 20 20 22 23 24 24 25 23 21 21 21 21 21 22 23 23 23 23 24 25 25
3 4 5 6 6 6 6 5 5 5 5 6 6 6 5 4 4 5 6 4 3 2 2 2 3 3 4 6 6 7 8 9 9 10 11 11 11 10 10 10 9 9 8 7 7 6 6 6 7 8 9 10 11 12 13 13 14 14 15 17 18 19 19 18 17 16 17 17 18 22 24 24 23 24 23 22 22 22 23 22 22 23 23 24 24 24 25 25
4 5 6 6 6 6 6 6 7 7 7 7 6 5 4 4 6 6 6 4 3 2 2 2 3 4 5 6 5 6 7 8 9 10 10 9 9 9 8 8 9 9 8 7 6 6 5 6 6 6 8 9 9 10 11 12 13 12 13 14 14 15 15 14 14 15 16 17 20 23 27 27 23 22 23 22 23 23 23 23 23 25 25 26 26 26 26 27
5 5 6 6 6 6 6 7 7 7 6 6 5 4 4 5 7 6 5 3 2 2 2 4 4 5 6 5 5 7 8 9 9 9 9 8 8 8 7 8 9 9 8 7 6 5 5 5 5 5 6 7 8 9 10 11 11 10 11 11 11 14 15 15 14 15 17 18 22 24 28 30 24 23 25 25 26 26 26 27 27 28 28 29 28 27 28 28
4 5 5 6 6 6 6 7 6 6 5 4 4 4 4 6 6 5 4 3 2 2 3 3 4 6 5 4 7 9 10 11 10 10 9 8 8 8 8 8 8 8 7 6 5 5 5 5 5 4 5 7 7 8 8 9 8 8 10 9 8 11 13 13 13 15 18 21 25 24 27 32 29 27 27 27 28 28 28 28 28 28 27 28 27 27 27 27
5 5 6 6 7 7 7 6 5 5 4 3 3 4 4 5 4 4 4 3 2 2 3 4 6 7 4 5 9 11 11 11 10 10 9 9 9 9 9 9 8 7 7 6 4 3 3 4 5 5 5 6 6 7 8 8 7 6 10 9 7 10 11 11 13 17 20 23 25 25 29 34 31 28 27 26 26 26 26 25 24 24 24 25 25 25 25 25
6 6 7 8 9 9 8 6 5 5 4 3 4 4 4 5 4 4 4 4 4 3 4 6 8 8 5 7 11 11 11 11 10 10 10 10 10 10 10 9 8 7 7 5 2 2 3 4 4 6 6 6 7 10 11 9 6 5 8 10 11 12 13 15 17 19 22 24 25 27 31 34 30 27 26 24 23 23 22 20 20 21 21 22 23 22 21 22
6 7 8 9 9 9 8 7 6 5 5 4 4 5 4 4 4 4 4 4 5 5 5 7 9 8 6 10 12 11 11 11 11 11 10 11 10 10 10 9 9 8 7 5 3 5 6 5 4 6 7 8 10 13 12 9 8 8 10 13 15 16 17 19 20 21 22 24 25 26 29 30 26 22 21 21 23 22 19 17 18 19 19 19 19 18 17 19
7 7 7 7 8 9 8 8 7 6 5 5 5 5 5 4 4 4 4 4 5 6 6 8 10 9 8 11 12 11 11 11 11 10 10 11 10 10 9 9 8 6 6 6 7 9 8 6 4 5 7 10 12 13 11 9 11 12 14 17 17 18 19 18 19 21 22 24 25 24 26 27 21 17 17 19 21 19 15 14 15 15 16 16 15 15 14 15
6 6 5 6 8 8 8 8 6 6 6 5 5 5 5 4 2 3 4 3 4 6 8 10 11 10 9 10 10 11 12 10 10 9 9 9 9 10 9 9 8 7 7 8 8 9 7 5 5 5 8 9 10 11 10 10 11 12 14 14 14 16 17 15 17 19 21 24 25 23 24 22 19 18 14 13 16 16 13 11 12 12 13 14 13 12 13 13
4 4 4 5 7 8 8 7 6 6 5 5 5 4 4 4 1 2 3 4 5 7 9 10 10 9 9 11 10 11 11 9 9 9 10 10 10 10 10 11 11 11 11 9 9 9 7 6 7 9 10 9 9 9 9 10 11 12 12 12 12 13 15 15 14 16 20 23 23 23 24 21 20 16 10 10 15 14 12 11 10 11 12 12 12 12 12 12
3 3 3 4 6 7 8 6 5 5 4 4 4 4 4 3 3 3 4 4 5 7 8 10 10 8 10 11 10 11 10 9 10 10 11 11 11 12 12 12 12 12 11 8 8 9 7 7 9 11 10 9 8 8 9 9 10 10 9 10 10 12 17 15 12 16 20 24 24 22 24 25 20 12 9 14 16 12 13 13 11 11 11 11 12 13 13 12
2 2 2 4 6 7 8 6 5 4 4 4 4 4 3 4 4 4 4 4 4 6 8 10 10 9 10 11 10 11 10 10 12 11 12 12 12 12 12 12 12 11 10 9 8 8 7 8 10 10 9 9 9 8 7 8 9 10 9 10 12 15 17 16 16 19 20 22 24 22 27 29 19 11 13 16 16 15 15 14 12 12 11 11 12 14 14 15
2 1 2 3 6 7 8 6 5 4 4 4 3 4 3 4 4 2 4 4 3 5 9 11 10 10 11 10 10 11 10 11 12 12 13 13 12 12 12 12 11 10 10 9 8 7 7 7 8 8 8 10 9 5 4 6 8 10 11 12 14 15 16 19 22 23 22 20 19 22 28 27 19 18 19 15 16 22 19 15 13 12 12 13 14 16 17 18
1 1 1 3 5 7 8 6 5 5 4 3 3 4 3 3 2 1 4 4 3 5 9 11 10 10 11 10 10 10 9 11 12 11 13 13 12 12 11 11 10 10 11 10 8 7 8 7 6 7 8 10 9 5 5 8 9 9 11 12 14 16 18 20 21 23 24 19 19 22 18 16 24 25 18 16 21 26 22 15 12 12 14 15 16 18 19 20
1 1 1 2 5 7 8 6 6 5 4 4 3 3 2 2 2 1 3 4 3 5 8 9 9 10 10 9 11 11 9 10 11 11 12 13 12 11 11 11 10 11 11 11 9 8 9 8 7 8 9 10 9 9 11 13 12 11 12 13 14 17 18 18 19 20 20 18 21 20 8 12 28 29 19 21 27 26 21 15 12 13 15 16 17 20 22 23
2 1 1 1 4 7 7 7 6 5 4 4 3 2 1 1 1 1 2 3 3 5 8 9 8 9 10 10 11 11 8 9 11 11 12 13 12 10 11 12 11 10 12 11 9 8 10 9 9 9 10 11 11 12 14 14 13 12 13 14 15 17 17 16 17 17 17 21 22 16 7 12 22 29 28 28 27 23 19 15 12 14 15 17 20 22 26 26
2 2 1 1 3 6 7 7 6 5 4 3 2 1 0 0 1 1 1 0 2 5 7 8 8 9 10 10 11 10 9 10 10 10 10 11 11 10 11 13 12 10 11 11 10 9 10 10 10 9 10 12 11 12 13 13 12 13 14 15 17 18 16 15 16 15 13 16 19 16 8 6 16 30 34 28 24 21 20 17 15 15 16 20 24 25 29 27
3 2 2 2 3 6 7 7 6 5 4 2 1 0 1 1 1 1 1 1 2 4 6 7 7 8 9 9 9 9 9 10 10 10 10 10 11 11 11 13 13 11 11 12 11 11 10 10 11 10 11 13 11 12 14 14 13 14 15 17 18 16 15 14 13 12 8 8 13 14 6 4 15 33 33 25 24 23 22 21 19 19 20 24 25 25 28 25
3 3 2 2 3 5 7 8 6 5 3 1 1 1 2 2 2 1 1 1 2 3 5 6 6 7 8 8 8 8 9 9 9 10 10 9 11 12 12 12 13 11 11 13 12 11 11 10 10 9 11 12 11 12 15 15 15 16 18 19 18 15 14 13 11 9 6 5 8 7 5 3 9 28 34 26 25 24 23 23 22 22 22 23 24 24 25 23
4 3 3 3 4 5 7 7 6 4 2 1 1 2 3 3 2 1 2 1 2 2 3 5 6 7 7 7 8 8 8 8 9 10 10 9 11 12 11 12 13 11 12 15 13 11 11 9 9 10 11 11 11 13 15 16 16 17 19 20 18 14 11 9 6 3 1 4 5 2 4 4 8 22 35 28 24 24 24 24 20 19 20 22 23 22 21 21
3 3 3 4 5 6 7 7 5 3 2 1 1 3 3 3 1 1 2 1 1 1 2 4 5 7 7 7 8 8 9 9 9 10 10 9 9 10 11 12 14 11 11 15 14 12 12 8 8 10 11 10 11 13 14 14 16 17 18 17 13 9 7 4 2 1 3 4 3 2 6 10 17 25 33 31 29 25 19 18 17 17 18 20 20 20 20 21
3 3 4 4 5 6 7 6 4 2 2 2 2 3 3 2 1 2 2 1 1 1 2 4 5 6 6 6 7 7 8 9 9 9 9 8 8 10 11 12 14 11 11 14 14 15 13 9 9 12 12 10 12 15 13 13 15 17 17 12 7 3 3 3 4 3 4 4 6 12 13 13 20 27 34 32 29 21 15 15 17 19 18 18 19 19 21 23
4 4 4 5 6 6 6 4 3 2 2 3 3 3 2 1 2 2 1 0 1 2 2 3 4 5 5 6 7 7 7 8 9 8 9 9 8 10 11 11 13 12 12 14 13 14 11 7 10 14 13 11 13 14 13 14 15 15 13 8 7 4 1 3 4 3 4 7 12 16 10 9 18 28 32 27 23 21 19 18 18 20 18 18 19 21 24 26
5 5 5 6 6 6 5 4 3 3 3 4 4 5 3 2 3 2 0 0 2 2 1 2 2 3 4 5 6 7 7 7 8 8 8 9 8 9 11 11 12 12 13 13 12 12 10 10 14 16 14 12 13 14 15 16 13 10 10 10 10 8 6 8 10 12 12 9 10 11 10 16 29 33 28 24 26 25 23 21 19 18 19 19 19 23 27 31
5 6 7 7 6 6 4 4 4 4 4 5 5 5 3 2 3 1 1 1 2 2 1 1 1 2 3 4 5 6 6 7 8 8 8 8 8 9 11 11 11 12 13 13 12 9 9 14 18 17 14 12 13 14 16 16 12 10 12 12 11 10 10 12 14 15 11 6 7 10 12 21 30 30 27 27 30 29 25 23 20 17 18 20 20 25 30 35
6 7 7 7 6 5 4 4 4 5 5 5 5 4 3 2 3 3 2 2 1 1 0 1 1 2 3 4 5 6 7 7 8 9 9 9 8 9 12 12 11 12 14 14 13 11 12 18 20 17 14 14 16 17 19 17 15 15 15 12 10 10 10 9 7 7 5 4 7 10 14 18 18 20 31 32 28 30 28 23 21 20 21 23 25 29 35 39
6 7 8 7 6 5 5 5 5 5 6 5 5 4 3 3 3 4 4 3 2 1 1 1 1 2 4 5 5 6 7 8 9 10 10 9 9 10 13 12 11 14 16 16 14 14 14 17 20 18 15 18 21 21 19 17 16 16 15 13 10 9 9 7 4 4 3 3 5 9 15 17 18 22 33 33 27 30 29 23 22 23 23 25 29 34 38 40
7 7 8 7 6 5 5 5 5 6 6 6 4 3 3 3 4 4 4 3 2 1 1 1 2 3 3 5 6 7 8 9 10 11 9 9 10 13 14 12 12 15 18 18 16 16 15 12 15 20 21 23 25 21 18 18 18 18 16 14 12 12 12 10 8 5 3 3 5 7 9 10 18 28 33 33 33 31 25 20 22 25 27 30 33 36 38 37
7 7 7 6 6 5 5 5 5 6 6 5 4 4 4 4 5 4 4 3 3 2 2 2 2 3 4 6 6 8 9 10 11 11 10 10 12 14 13 12 14 18 19 19 18 17 16 11 14 22 26 26 24 20 21 24 22 19 19 17 15 14 13 13 15 15 11 5 2 4 5 12 23 34 36 36 33 24 17 21 29 32 32 32 31 32 33 35
7 7 7 6 5 5 5 5 5 6 6 5 4 4 4 5 5 5 5 4 3 3 3 3 4 5 6 7 8 9 11 11 12 12 11 12 13 13 13 14 18 19 19 20 19 17 15 14 19 27 29 28 27 26 27 26 21 20 21 20 19 17 13 10 10 16 16 11 9 7 9 25 40 41 35 29 19 12 17 28 34 34 31 31 31 32 35 37
7 7 7 6 5 5 5 5 6 6 6 5 5 5 5 6 6 5 5 5 5 5 5 6 6 6 7 8 9 10 12 14 15 13 12 14 15 15 16 18 20 20 20 21 20 18 18 18 23 29 29 28 28 27 26 22 18 18 20 21 21 18 16 12 8 13 16 17 21 15 10 34 51 36 19 13 10 13 25 33 35 35 34 35 35 36 37 36
7 7 6 6 5 5 5 6 6 6 6 6 6 6 6 7 7 6 6 6 6 6 6 7 7 8 9 10 11 12 13 15 15 14 15 17 17 17 18 20 21 21 21 21 20 20 19 17 22 30 33 31 28 26 23 18 15 16 17 19 20 20 21 20 19 22 20 21 23 10 7 33 44 23 11 17 21 27 35 37 37 37 37 36 35 35 34 33
7 7 6 5 5 5 6 6 5 6 6 6 6 6 7 7 7 7 6 7 7 7 7 8 9 9 11 13 14 14 14 13 15 18 19 19 19 20 20 21 21 21 22 22 23 23 19 17 21 23 23 24 24 21 19 16 12 14 16 17 20 23 22 22 27 24 20 29 28 8 9 36 42 28 31 37 38 40 40 38 38 37 36 36 35 34 33 33
6 6 5 5 5 5 6 6 5 6 6 7 7 7 8 8 7 7 7 8 8 9 9 10 10 11 13 14 15 15 15 15 17 20 21 20 21 21 21 21 22 23 24 25 26 26 23 23 24 18 10 10 14 17 19 21 18 19 24 25 29 31 25 23 26 21 19 31 32 16 22 45 51 44 45 44 42 43 41 37 37 35 33 34 35 36 36 35
6 5 4 4 5 5 6 6 6 6 6 7 7 8 8 8 8 8 8 9 9 10 11 11 11 13 13 14 16 17 17 18 19 21 22 22 22 22 22 23 24 25 26 26 27 27 26 28 29 25 22 22 26 29 29 29 30 31 34 35 34 35 33 29 26 26 28 30 33 36 42 46 48 48 47 45 44 42 38 36 35 35 35 36 37 37 37 36
5 5 4 4 5 5 7 7 6 6 7 7 7 7 8 8 8 8 9 10 10 11 12 12 12 13 14 16 18 19 19 21 22 23 24 23 24 25 26 26 27 27 27 27 27 25 27 33 33 31 32 32 33 36 33 32 35 37 37 38 35 31 32 30 29 35 34 25 29 46 47 41 45 48 45 44 42 39 40 40 40 40 38 37 36 37 39 41
6 6 5 5 5 5 6 7 7 7 7 8 8 7 7 8 8 9 10 11 12 12 13 14 13 15 17 18 19 21 21 22 23 24 25 25 27 28 28 29 28 29 29 27 26 26 28 34 36 34 36 36 35 37 36 33 35 34 32 34 34 32 33 35 37 40 36 29 35 46 46 44 48 43 37 37 37 38 43 45 43 41 38 36 37 40 43 47
6 6 6 7 7 6 5 6 8 8 8 9 9 8 8 8 8 10 11 12 14 14 15 16 16 17 19 19 21 22 22 22 24 25 26 27 28 29 30 30 29 30 30 29 29 29 27 31 35 35 38 41 39 37 35 29 27 29 32 34 36 36 34 34 34 32 29 32 38 39 39 41 38 32 32 36 38 42 45 44 42 40 38 39 42 46 50 52
7 7 6 7 8 8 7 6 8 9 9 9 9 8 9 9 9 11 12 13 15 16 16 17 17 18 20 21 23 23 21 22 25 26 27 28 29 30 30 31 31 32 33 32 32 30 27 30 34 35 39 42 39 34 30 23 23 30 38 37 30 25 23 22 23 21 20 25 28 26 29 33 30 31 37 41 43 44 44 42 40 39 41 46 50 53 55 54
8 8 8 7 8 8 8 7 8 9 8 9 9 9 10 10 11 12 13 14 16 16 17 18 18 20 22 24 24 24 22 24 26 26 27 28 30 31 30 32 33 33 34 33 33 32 30 31 33 32 34 39 37 32 30 29 31 35 33 23 15 15 18 21 22 20 19 21 23 24 29 33 35 38 43 44 42 41 39 40 42 45 50 53 54 55 54 52
9 8 8 8 8 7 7 7 8 8 8 8 9 10 10 11 12 13 15 16 16 17 18 19 20 22 24 24 24 25 25 26 27 27 28 29 30 31 31 32 32 31 31 30 30 31 30 31 33 27 26 34 35 31 33 35 31 26 19 13 15 22 27 30 30 26 22 19 22 28 33 36 38 39 39 40 40 39 41 44 48 53 55 56 56 54 50 48
Wind_Direction
104 112 114 113 115 115 114 111 108 107 106 106 104 101 98 95 93 88 80 64 42 2 332 315 299 291 289 288 286 286 287 287 290 294 297 299 298 296 297 299 302 304 304 302 300 297 292 287 279 272 269 269 272 274 273 272 268 262 258 253 255 265 267 267 270 274 282 287 274 261 257 260 270 280 287 292 294 291 287 284 283 282 280 280 281 279 277 276
95 110 115 117 120 116 112 108 105 104 103 103 101 99 95 89 80 63 37 8 339 321 309 298 292 286 287 287 287 289 288 289 296 302 302 303 302 301 305 309 314 315 311 308 306 300 295 290 284 276 269 269 268 267 274 275 271 275 277 270 267 266 263 263 265 269 279 285 282 278 276 277 280 286 292 295 294 289 285 283 282 279 279 280 279 276 274 272
105 113 115 115 115 113 110 108 108 108 109 107 104 99 84 59 31 6 350 336 321 309 301 294 288 286 287 289 292 292 291 299 315 314 309 317 316 315 318 321 324 324 321 316 312 305 296 292 294 297 287 281 275 271 273 271 274 279 275 272 272 265 261 262 261 263 272 281 286 288 286 286 287 291 294 295 292 287 285 284 282 281 282 282 280 277 274 272
116 118 118 117 116 116 115 115 116 115 113 107 91 68 37 10 352 341 332 323 315 307 302 299 295 297 300 302 302 299 303 317 341 337 327 333 327 326 330 333 333 332 329 321 316 312 304 295 297 302 297 294 282 269 263 267 281 284 275 272 270 265 261 259 260 264 270 277 284 288 287 288 290 290 290 290 288 287 287 285 284 282 280 280 280 278 276 274
121 122 121 121 120 119 118 118 117 110 97 72 37 13 354 343 334 329 326 321 317 314 320 327 331 338 331 326 316 316 322 327 345 344 341 345 339 337 336 333 329 326 323 315 310 305 298 288 287 290 289 295 272 260 264 275 290 288 279 273 268 266 264 263 265 267 270 275 279 283 283 283 284 285 285 286 288 290 290 288 286 283 280 278 278 277 275 272
121 121 120 120 118 117 115 112 102 74 34 0 341 334 330 329 328 329 330 329 334 343 0 3 0 357 348 343 331 338 342 329 343 344 345 352 342 332 325 319 317 318 317 310 304 296 289 282 280 275 271 270 240 258 273 272 279 281 274 270 268 269 270 272 274 275 278 279 280 282 282 280 281 282 284 285 288 290 290 290 290 288 285 282 279 277 274 271
117 116 114 113 112 114 109 91 30 353 339 328 322 322 322 324 328 335 345 352 352 352 357 359 356 353 351 343 334 345 348 332 343 339 339 346 339 329 318 310 310 312 311 307 300 292 286 275 267 259 257 247 229 264 277 267 272 269 263 265 267 273 276 278 280 282 284 285 284 283 283 283 283 284 285 286 288 288 289 290 290 289 288 286 282 279 277 274
114 111 111 112 113 107 41 352 335 330 323 318 316 315 316 322 338 3 15 0 342 336 338 339 335 334 336 329 332 342 332 317 330 330 331 333 333 333 323 311 309 308 307 302 294 287 279 267 258 256 255 247 240 250 249 249 254 249 252 262 270 278 283 284 283 284 286 287 287 287 287 287 287 287 286 286 288 288 289 289 288 287 286 283 280 277 275 273
110 108 108 103 69 2 343 335 328 323 318 315 311 311 317 345 37 42 15 350 336 328 317 315 314 317 325 328 337 341 328 319 327 330 325 323 327 331 328 321 316 310 308 303 294 285 278 276 272 272 270 258 247 244 244 242 243 247 254 263 273 281 285 287 287 288 289 289 289 288 288 287 287 287 287 288 288 287 286 284 283 282 280 278 277 275 273 271
92 86 68 21 354 342 337 335 329 326 325 321 321 341 64 78 67 32 1 346 337 322 307 309 312 318 329 336 337 333 327 329 332 330 324 324 328 330 330 327 320 314 313 311 303 289 281 277 270 273 273 259 252 248 251 252 253 258 263 269 276 280 283 286 288 291 291 290 289 287 287 287 287 287 290 293 289 284 280 277 276 276 277 277 277 277 275 272
61 34 0 346 346 347 347 349 349 356 10 28 64 93 98 83 52 14 355 345 334 318 310 309 316 327 334 337 335 328 330 336 334 332 331 331 330 327 324 319 315 314 315 312 304 295 284 273 264 265 263 257 255 254 257 260 265 269 273 276 279 280 283 286 291 293 291 291 289 290 290 290 291 292 296 296 289 285 281 278 277 277 278 279 279 279 277 275
18 351 347 352 358 6 16 24 33 45 60 76 92 98 90 63 20 360 352 349 344 327 315 308 321 333 332 337 341 336 337 339 336 335 335 333 328 322 316 313 315 318 317 312 304 300 290 278 273 268 263 265 265 264 268 271 276 278 279 282 284 287 289 290 293 294 293 296 298 300 298 295 297 299 298 295 290 288 285 284 282 280 279 279 280 279 278 276
359 354 360 9 19 33 44 50 53 59 67 77 84 78 56 18 354 352 352 353 346 329 313 310 323 329 328 339 348 346 344 338 334 334 334 332 327 322 318 318 322 321 314 310 309 306 300 293 288 282 273 275 276 274 279 283 285 289 289 291 298 300 300 301 303 303 303 304 306 307 301 300 304 302 301 299 295 292 290 289 287 284 282 281 280 279 278 276
9 12 19 26 33 42 47 48 48 50 54 60 60 41 11 350 345 348 351 353 347 332 315 313 324 330 329 342 353 350 348 342 338 336 334 334 331 329 328 326 324 320 316 317 320 315 313 310 305 300 287 280 277 278 284 284 286 297 297 305 318 314 311 313 311 305 305 305 307 308 301 303 308 306 307 305 298 295 292 290 287 285 284 283 281 279 277 275
36 36 38 39 34 30 30 29 29 28 28 29 23 4 350 345 346 353 357 0 356 332 319 326 338 340 338 351 355 351 349 346 344 341 339 342 341 337 334 331 327 324 324 323 319 323 326 323 319 303 280 280 283 288 292 286 289 299 296 303 319 314 312 312 305 302 305 306 307 307 301 302 307 309 309 303 297 295 291 289 287 285 284 283 282 279 276 274
60 52 46 38 26 18 17 16 12 9 5 2 0 357 355 356 3 13 15 13 9 357 352 354 350 352 1 2 354 351 348 347 347 346 345 348 345 342 340 337 334 329 325 323 321 342 347 338 328 301 284 296 311 325 327 308 301 290 279 279 284 295 302 301 299 302 305 305 303 303 299 301 307 311 308 302 299 296 291 289 288 287 286 284 283 281 279 275
65 52 40 31 22 14 11 9 9 8 5 7 11 14 12 14 23 30 32 24 18 16 9 3 358 2 9 359 353 351 350 349 349 348 347 348 345 341 340 334 333 327 322 323 313 331 353 6 335 305 310 325 324 330 330 313 292 263 260 270 274 278 287 296 300 299 301 301 300 300 299 301 308 310 308 305 300 295 294 295 293 291 289 288 288 286 283 278
61 49 37 29 20 10 6 4 9 13 14 22 26 27 23 24 34 40 40 33 25 20 9 5 7 10 1 351 351 351 352 349 348 350 347 346 342 335 334 333 335 329 326 331 311 322 346 2 327 303 318 317 306 314 320 308 292 280 276 285 285 279 284 295 300 299 299 300 300 302 301 302 309 311 308 304 299 299 303 301 296 294 294 295 294 292 286 280
57 51 40 29 20 12 6 3 11 18 19 27 28 27 25 25 41 46 44 41 32 26 14 8 9 10 357 348 350 351 352 349 347 350 344 340 338 337 339 341 340 329 336 353 343 341 350 347 324 305 310 305 302 310 316 309 297 291 289 293 296 292 291 297 302 301 303 304 305 307 305 305 315 319 306 299 300 306 311 302 297 298 299 301 301 298 291 284
56 56 47 33 23 17 11 9 15 21 22 26 25 27 26 23 30 40 41 40 36 29 16 9 4 3 356 350 352 351 352 352 347 345 345 347 348 350 352 346 343 345 359 4 352 351 359 354 349 337 322 315 315 317 316 311 300 295 292 291 294 293 296 303 304 304 306 307 311 315 309 310 322 318 304 306 313 315 313 305 303 303 302 304 305 301 296 289
60 58 54 39 25 21 18 13 18 25 25 24 25 27 24 24 24 27 31 30 30 23 12 5 359 358 357 354 353 352 356 0 354 353 360 6 5 2 1 356 355 360 5 5 350 350 3 5 356 346 337 332 328 323 317 312 303 299 295 289 290 296 306 312 310 313 313 308 315 321 312 315 325 313 300 328 330 320 312 309 307 305 304 304 305 301 297 294
65 57 56 40 26 22 19 16 22 25 26 27 26 25 20 24 28 32 37 31 28 20 9 4 3 2 359 357 358 359 6 13 9 9 11 13 13 8 6 6 4 3 4 3 353 350 357 358 349 342 341 339 335 327 318 314 309 306 301 295 300 312 319 322 323 321 318 312 318 325 316 319 328 314 305 327 330 324 311 308 305 304 307 305 304 302 297 294
70 60 56 38 25 20 15 16 21 19 28 33 26 22 20 15 18 32 41 29 23 20 11 6 7 8 3 2 6 8 16 21 18 20 19 16 16 13 13 12 6 6 11 11 6 2 357 349 345 344 343 341 337 327 316 316 321 322 322 317 319 324 322 320 323 323 322 318 319 322 316 319 330 324 319 323 327 331 320 307 301 298 307 311 307 305 299 291
75 63 58 37 25 16 11 13 15 15 27 32 29 24 18 15 11 21 34 28 28 20 11 6 8 10 8 10 14 15 23 24 22 25 23 20 21 20 21 18 14 17 21 23 22 18 9 355 350 351 345 343 341 327 320 330 330 329 333 331 326 326 320 315 319 321 326 326 321 322 319 319 327 325 325 324 324 331 326 309 303 298 300 309 311 311 305 294
55 49 59 35 24 15 9 10 9 11 20 27 30 21 12 9 359 1 24 26 25 10 6 6 8 13 15 20 24 26 30 28 27 29 26 24 26 28 27 25 27 27 28 33 36 25 17 10 3 360 351 350 349 339 348 351 346 340 337 331 328 329 324 318 315 315 324 329 325 329 328 319 323 327 328 323 324 332 329 314 307 301 293 299 311 316 315 305
22 15 45 32 24 12 7 6 5 9 16 19 19 14 5 353 352 4 3 356 352 4 9 10 12 17 21 28 31 30 32 29 29 31 28 27 29 32 32 32 35 35 32 33 31 22 18 14 10 10 4 358 354 356 1 354 348 347 339 333 332 329 321 316 313 314 321 322 320 325 313 294 319 333 337 325 329 335 332 320 309 295 285 292 305 311 317 315
354 338 326 16 15 8 3 0 0 3 6 7 6 6 350 340 9 4 331 323 334 6 15 15 15 18 25 33 32 31 35 30 26 30 29 28 30 33 32 32 35 36 32 27 24 20 18 15 9 8 6 1 358 0 360 351 342 340 336 332 328 323 318 315 312 310 314 315 317 323 297 273 305 329 335 326 331 338 330 320 302 283 277 289 302 304 311 314
330 316 302 329 357 1 358 354 353 352 354 354 349 353 321 66 41 21 24 37 4 17 21 20 22 24 29 35 32 34 39 30 25 30 30 27 29 31 30 28 27 29 28 22 16 13 14 12 7 1 0 358 355 356 353 346 340 336 335 332 327 322 318 313 305 305 318 316 317 326 324 258 284 319 333 327 327 335 329 320 302 285 282 292 300 301 304 306
317 306 303 316 343 352 350 347 345 343 344 336 314 161 150 116 78 66 100 108 24 27 24 22 27 31 34 35 32 33 34 31 28 28 28 28 26 24 25 22 17 18 20 15 10 8 5 0 359 356 355 352 348 349 346 339 337 335 334 331 328 322 315 314 303 307 323 298 306 322 319 240 292 317 332 330 325 330 326 322 310 299 295 294 297 297 300 299
312 306 311 321 337 343 339 338 339 336 329 293 226 162 153 131 126 122 97 31 5 20 21 26 32 37 42 39 33 30 31 32 28 25 26 26 21 18 20 18 12 12 14 11 7 5 360 350 351 350 348 348 347 345 341 335 333 334 334 331 332 328 319 318 304 310 334 281 299 316 283 249 299 320 330 328 324 327 323 323 315 305 302 299 300 300 300 296
308 309 323 329 333 334 331 332 332 326 307 247 193 170 160 136 116 115 113 64 27 10 16 31 37 40 45 40 35 31 33 33 27 27 26 22 21 17 19 18 11 10 10 7 4 2 0 352 348 347 342 343 344 342 338 332 330 332 334 333 335 333 327 320 298 313 351 275 303 306 291 280 258 311 331 330 325 327 324 322 316 309 308 307 307 305 301 295
307 315 326 327 327 326 326 327 325 310 275 236 201 178 172 152 89 49 110 92 17 5 29 45 47 41 37 34 36 32 31 32 26 27 24 22 22 14 18 18 11 12 4 359 357 353 357 357 350 347 340 337 337 338 336 329 329 330 330 334 338 339 343 330 273 291 241 240 298 304 316 299 272 304 332 332 329 331 322 317 316 314 313 311 308 306 302 299
313 317 321 321 320 321 324 324 312 288 257 239 206 180 180 176 133 59 89 80 4 77 83 68 54 41 34 34 35 31 31 29 22 22 20 18 16 11 15 11 8 11 358 353 352 347 353 359 349 343 338 333 329 330 331 328 328 323 320 333 343 356 11 313 275 299 269 243 285 297 307 295 284 314 333 331 332 335 324 318 317 313 310 309 309 306 305 307
314 316 318 319 318 320 322 314 293 275 253 230 202 182 181 159 115 76 76 34 67 107 103 76 57 39 33 33 31 27 28 23 15 13 10 7 6 8 10 4 2 3 355 353 349 342 341 339 342 339 332 328 326 324 324 325 325 314 308 317 310 296 228 255 264 262 274 288 290 290 293 272 291 323 335 333 335 337 331 325 318 313 304 301 307 308 307 308
311 311 312 315 316 315 311 294 274 268 247 226 206 189 183 118 97 91 59 177 134 134 112 70 56 27 24 27 24 20 18 17 11 3 359 358 359 2 0 356 353 352 353 352 346 338 321 315 331 331 323 321 319 319 321 323 323 311 302 296 292 287 243 245 268 272 279 302 289 266 251 275 303 324 338 338 336 336 335 328 321 317 304 295 299 305 308 309
303 303 307 311 310 307 296 277 265 255 240 227 212 201 199 145 124 143 156 148 155 156 149 53 14 15 28 23 16 10 2 3 4 358 353 353 357 356 352 347 343 345 348 344 342 338 311 314 326 325 320 318 315 319 322 319 312 299 294 287 285 286 265 260 277 285 287 292 273 247 250 285 308 326 337 339 335 334 334 331 329 322 310 303 302 306 311 313
295 299 304 306 303 297 282 269 257 245 236 223 212 215 216 176 165 181 167 151 149 133 169 272 326 8 21 15 10 5 355 350 352 350 349 348 348 347 343 338 333 337 341 338 337 330 312 315 323 324 323 318 317 320 319 315 307 295 286 284 287 284 270 258 275 308 317 283 263 238 251 282 295 313 329 334 333 331 332 334 331 322 315 312 309 309 312 313
291 297 300 299 294 285 273 258 245 239 232 216 209 212 196 164 166 178 173 168 160 116 49 317 322 343 356 359 355 352 349 343 340 340 340 338 335 336 337 332 327 331 334 333 330 325 317 315 320 324 322 317 318 317 315 315 311 299 287 283 282 273 266 250 245 306 309 287 289 248 249 268 270 291 321 329 326 326 327 325 323 320 317 314 311 312 313 314
289 294 294 291 283 276 268 250 236 231 224 216 209 199 179 170 174 179 183 191 198 211 267 312 339 340 342 340 337 338 338 335 333 330 326 324 324 328 329 325 324 328 328 328 325 323 320 308 308 318 318 315 316 314 310 312 310 302 291 280 270 265 266 257 239 238 244 262 302 279 242 245 278 299 316 320 319 322 323 322 324 324 320 317 315 315 315 315
289 291 289 285 278 273 260 237 229 228 224 215 199 185 183 185 185 189 195 202 213 231 238 266 318 326 325 327 328 329 327 325 326 321 311 311 318 323 324 321 322 324 323 323 322 321 316 293 288 308 313 311 314 313 307 307 306 297 287 278 272 268 263 264 262 255 250 241 271 304 266 257 289 308 312 314 319 324 331 331 329 327 325 322 320 317 313 313
287 285 282 279 274 266 244 226 226 227 221 207 196 198 196 193 195 196 201 212 223 237 256 274 294 304 308 313 319 322 322 319 321 318 307 309 318 321 319 318 319 320 319 318 319 318 312 291 285 298 306 308 312 311 304 304 302 292 287 283 280 274 256 256 274 263 251 238 241 268 284 285 299 312 315 317 330 340 337 332 327 326 324 319 315 311 309 310
283 278 275 273 267 253 230 219 221 221 214 208 210 211 202 199 205 207 212 228 241 255 270 275 286 298 302 307 312 317 319 317 317 317 309 313 320 318 315 317 316 317 317 314 314 314 309 297 290 295 304 310 312 308 304 305 300 289 285 282 281 276 257 244 258 276 269 255 256 256 266 291 303 316 322 329 350 337 328 327 323 320 315 312 310 308 309 311
279 274 271 267 257 237 220 214 217 219 216 215 215 209 205 207 212 218 227 239 252 263 270 273 284 294 300 308 311 314 318 316 313 314 313 315 320 318 316 316 315 315 315 313 312 312 309 302 295 298 305 310 311 310 309 310 303 290 285 282 280 280 279 274 270 276 279 268 263 249 252 289 302 312 311 315 318 317 321 321 318 315 312 312 312 311 312 311
277 271 265 259 245 228 218 213 217 222 217 216 214 209 210 214 218 228 237 248 259 266 271 278 287 293 298 305 307 310 314 312 309 311 313 315 318 317 315 314 314 314 313 310 308 308 305 298 294 299 311 318 318 318 317 315 306 291 287 286 286 288 288 281 271 267 270 273 269 226 240 285 296 297 295 304 311 315 319 320 319 320 318 317 315 312 311 308
274 264 256 251 237 222 214 211 214 221 219 219 218 215 217 222 226 235 245 255 264 270 276 283 289 294 300 304 305 307 310 307 305 307 311 314 314 312 313 313 312 312 311 310 308 306 300 292 288 285 283 297 303 306 309 308 300 289 288 288 290 292 287 276 271 258 252 269 270 243 253 283 296 298 298 306 315 319 320 319 321 323 319 315 313 310 308 306
263 253 251 244 230 219 217 217 219 222 223 224 224 222 226 230 235 243 253 262 268 274 281 285 292 298 302 305 306 307 309 310 307 307 311 314 312 311 313 312 311 311 311 310 309 307 299 295 294 287 274 277 291 297 298 296 293 291 292 294 294 294 290 282 269 255 253 263 269 270 271 281 294 300 304 313 319 319 318 318 320 316 311 310 309 307 307 306
250 241 242 233 222 220 223 226 231 230 226 227 229 229 233 239 247 255 261 268 274 282 287 289 296 303 305 307 307 307 311 313 311 309 311 313 313 313 313 312 312 311 310 310 310 307 300 300 303 298 291 292 299 303 300 296 295 295 297 300 301 301 295 284 270 268 271 264 269 283 288 287 291 300 310 316 317 314 312 313 313 309 307 307 306 306 306 306
243 235 234 229 222 222 228 234 238 235 229 231 235 237 240 244 255 265 271 275 280 286 291 295 305 307 306 308 308 307 313 315 312 310 311 313 313 313 312 312 311 310 310 309 308 306 301 301 305 304 301 301 302 305 306 302 300 299 299 301 305 307 301 291 287 289 284 266 269 287 295 293 297 308 315 311 309 307 307 308 306 304 303 303 304 307 308 310
246 240 236 232 227 227 237 242 240 237 237 239 242 245 250 254 264 272 276 281 285 289 293 300 307 307 306 308 307 309 316 315 309 309 312 312 312 311 311 311 310 310 310 307 306 305 301 299 304 305 303 303 305 309 311 308 303 302 302 305 308 308 303 296 296 298 289 276 281 290 293 294 303 313 308 302 303 303 302 301 299 299 302 306 309 311 312 314
251 244 241 237 232 232 245 252 244 240 241 245 249 252 258 264 271 276 279 284 290 295 299 303 307 307 307 308 307 312 316 310 307 310 312 310 310 311 311 310 309 309 308 306 305 304 299 297 302 304 303 305 311 314 314 309 301 302 306 309 309 305 301 299 298 299 295 290 292 296 297 300 306 306 303 303 303 301 299 298 299 303 310 314 315 314 314 315
255 247 244 242 237 237 249 257 249 244 246 250 257 261 265 271 277 282 285 288 292 299 304 306 308 308 307 307 309 313 312 308 308 311 310 309 309 310 308 307 308 307 306 307 305 303 301 299 302 303 301 305 312 314 312 310 304 305 309 312 307 301 303 304 300 296 296 295 297 303 305 305 306 305 304 303 301 299 300 302 307 313 316 318 317 316 315 312
256 249 245 244 241 241 252 259 254 252 254 257 263 268 273 279 285 290 295 296 299 304 307 308 309 308 307 309 311 311 309 308 310 309 308 308 308 308 307 306 307 306 306 306 304 303 302 299 300 301 297 303 312 314 312 314 312 311 316 316 310 309 306 303 298 294 293 297 303 307 307 306 306 303 301 299 299 301 304 309 315 318 318 316 315 313 311 308
Height
3136 3139 3139 3140 3142 3143 3143 3145 3145 3146 3147 3147 3148 3148 3149 3149 3149 3150 3150 3150 3151 3151 3151 3150 3150 3150 3150 3150 3149 3148 3148 3147 3147 3147 3146 3146 3145 3145 3144 3144 3144 3143 3143 3142 3142 3142 3142 3141 3141 3142 3142 3141 3141 3141 3141 3142 3142 3141 3142 3141 3141 3141 3142 3142 3142 3141 3141 3141 3141 3141 3140 3140 3140 3139 3138 3138 3137 3137 3137 3137 3136 3136 3135 3135 3135 3135 3134 3133
3138 3139 3141 3142 3143 3144 3144 3145 3146 3147 3147 3148 3148 3149 3149 3149 3150 3150 3150 3150 3150 3150 3150 3150 3150 3149 3149 3148 3148 3147 3146 3145 3146 3145 3145 3144 3144 3144 3143 3143 3142 3142 3141 3141 3141 3141 3140 3140 3140 3140 3140 3140 3140 3140 3140 3140 3140 3141 3141 3140 3140 3141 3141 3141 3141 3140 3140 3140 3139 3139 3139 3138 3138 3137 3136 3135 3135 3135 3135 3135 3135 3134 3133 3133 3133 3133 3132 3131
3140 3141 3143 3144 3144 3145 3145 3146 3147 3148 3148 3149 3149 3149 3149 3149 3150 3150 3150 3150 3150 3149 3149 3149 3149 3148 3148 3147 3146 3146 3144 3144 3145 3144 3144 3143 3143 3142 3142 3141 3141 3141 3140 3140 3140 3139 3139 3139 3138 3138 3138 3139 3139 3139 3139 3139 3139 3140 3140 3139 3139 3140 3140 3140 3140 3140 3139 3138 3137 3137 3137 3136 3136 3135 3134 3132 3132 3132 3133 3132 3132 3132 3132 3131 3130 3130 3130 3129
3142 3143 3144 3145 3146 3146 3147 3147 3148 3149 3149 3149 3149 3149 3149 3149 3149 3149 3149 3149 3149 3148 3148 3148 3147 3147 3147 3146 3145 3144 3143 3143 3144 3143 3143 3142 3142 3141 3141 3140 3140 3140 3139 3139 3139 3138 3138 3138 3137 3137 3137 3138 3138 3137 3138 3138 3139 3139 3138 3138 3138 3138 3138 3139 3139 3139 3139 3137 3136 3135 3135 3134 3133 3133 3132 3130 3129 3130 3130 3130 3130 3130 3130 3129 3128 3127 3127 3127
3143 3144 3145 3146 3147 3147 3148 3148 3149 3149 3149 3149 3149 3149 3149 3148 3148 3148 3148 3148 3147 3147 3147 3147 3146 3146 3146 3145 3144 3144 3143 3143 3143 3142 3142 3141 3141 3140 3140 3139 3139 3139 3139 3138 3138 3138 3137 3137 3137 3137 3136 3137 3137 3137 3137 3137 3138 3138 3137 3137 3137 3138 3137 3137 3138 3137 3137 3136 3135 3134 3133 3132 3131 3130 3130 3128 3126 3126 3126 3126 3127 3127 3127 3127 3125 3124 3124 3124
3144 3145 3146 3147 3147 3148 3148 3148 3148 3148 3148 3148 3148 3148 3148 3148 3147 3147 3147 3147 3146 3146 3146 3146 3146 3145 3145 3144 3143 3143 3143 3143 3142 3142 3141 3141 3140 3140 3139 3139 3138 3138 3138 3137 3137 3137 3137 3136 3136 3136 3136 3136 3136 3136 3137 3137 3137 3137 3136 3135 3136 3136 3136 3136 3136 3135 3135 3134 3133 3132 3130 3130 3129 3128 3127 3127 3125 3124 3123 3122 3123 3123 3124 3124 3123 3122 3122 3121
3145 3146 3146 3147 3147 3148 3148 3148 3148 3148 3148 3147 3147 3147 3147 3147 3146 3146 3146 3146 3146 3146 3145 3145 3145 3144 3144 3143 3143 3142 3142 3142 3142 3141 3141 3140 3140 3139 3138 3138 3137 3137 3137 3136 3136 3136 3136 3135 3135 3135 3135 3135 3135 3135 3136 3136 3135 3135 3135 3134 3134 3135 3135 3134 3134 3133 3132 3132 3131 3129 3128 3127 3127 3125 3124 3124 3123 3122 3121 3120 3119 3120 3120 3120 3120 3119 3119 3119
3145 3146 3146 3147 3147 3147 3147 3147 3147 3147 3147 3146 3146 3146 3146 3146 3145 3145 3145 3145 3145 3145 3145 3145 3144 3144 3143 3143 3142 3142 3142 3142 3141 3141 3140 3139 3139 3138 3138 3137 3137 3136 3136 3135 3135 3135 3134 3134 3134 3133 3133 3134 3134 3134 3134 3135 3134 3133 3133 3132 3133 3133 3133 3132 3132 3131 3130 3129 3128 3127 3126 3125 3124 3122 3121 3122 3121 3120 3119 3118 3117 3117 3117 3117 3117 3116 3116 3116
3145 3146 3146 3147 3147 3147 3146 3146 3146 3146 3146 3145 3145 3145 3145 3145 3145 3145 3145 3145 3145 3145 3144 3144 3144 3143 3143 3142 3142 3141 3141 3141 3140 3140 3139 3139 3138 3137 3137 3136 3136 3135 3135 3135 3134 3134 3133 3133 3133 3132 3133 3133 3132 3132 3133 3133 3133 3132 3132 3131 3131 3131 3130 3130 3129 3129 3128 3127 3126 3124 3123 3122 3122 3120 3119 3120 3119 3118 3117 3115 3114 3114 3114 3114 3114 3114 3113 3113
3145 3146 3146 3146 3146 3146 3146 3145 3145 3145 3145 3144 3144 3144 3144 3145 3145 3145 3145 3144 3144 3144 3144 3143 3143 3143 3142 3142 3141 3141 3141 3140 3139 3139 3138 3138 3137 3136 3136 3135 3135 3134 3134 3134 3133 3133 3132 3132 3132 3131 3132 3132 3131 3131 3131 3132 3131 3131 3130 3130 3130 3129 3128 3127 3127 3127 3126 3125 3123 3122 3121 3120 3119 3118 3117 3117 3116 3115 3114 3113 3112 3111 3111 3111 3111 3110 3110 3110
3145 3146 3146 3146 3146 3145 3145 3145 3144 3144 3144 3143 3143 3144 3144 3144 3145 3144 3144 3144 3143 3143 3143 3143 3142 3142 3142 3142 3141 3140 3140 3139 3139 3138 3138 3137 3136 3135 3135 3134 3134 3133 3133 3133 3132 3132 3131 3131 3131 3131 3131 3130 3130 3130 3130 3130 3130 3130 3129 3128 3128 3127 3127 3126 3125 3125 3123 3123 3121 3119 3118 3117 3117 3115 3115 3114 3113 3112 3111 3110 3110 3109 3108 3108 3108 3107 3107 3107
3145 3145 3145 3145 3145 3145 3145 3144 3144 3144 3144 3143 3144 3144 3144 3144 3144 3144 3144 3143 3143 3143 3142 3142 3142 3142 3142 3141 3141 3140 3139 3139 3138 3138 3137 3136 3136 3135 3134 3134 3133 3133 3132 3132 3131 3131 3130 3130 3130 3130 3130 3129 3129 3129 3129 3129 3128 3128 3128 3127 3126 3125 3124 3124 3123 3122 3121 3120 3119 3117 3115 3114 3114 3113 3112 3111 3110 3109 3108 3107 3107 3106 3106 3105 3105 3104 3103 3103
3145 3145 3144 3144 3145 3145 3145 3144 3144 3144 3143 3144 3144 3144 3144 3144 3144 3143 3143 3143 3142 3142 3142 3142 3142 3141 3141 3140 3140 3140 3139 3138 3138 3137 3136 3136 3135 3134 3134 3133 3133 3132 3132 3131 3130 3130 3129 3129 3129 3129 3129 3128 3128 3128 3128 3128 3127 3127 3126 3125 3124 3123 3122 3122 3121 3120 3119 3118 3117 3116 3111 3110 3112 3110 3109 3109 3107 3106 3105 3104 3104 3103 3103 3102 3102 3101 3100 3100
3145 3144 3144 3144 3145 3145 3145 3144 3144 3143 3143 3144 3144 3144 3144 3144 3143 3143 3142 3142 3142 3142 3142 3142 3141 3141 3140 3140 3140 3139 3138 3138 3137 3136 3135 3135 3134 3134 3133 3132 3132 3131 3131 3130 3129 3129 3129 3128 3128 3128 3128 3127 3127 3127 3127 3126 3125 3125 3124 3124 3123 3121 3120 3120 3120 3118 3117 3116 3115 3114 3109 3106 3108 3108 3107 3106 3104 3103 3101 3101 3101 3100 3099 3098 3098 3098 3097 3096
3145 3144 3145 3145 3145 3145 3144 3144 3144 3144 3144 3144 3143 3143 3143 3143 3143 3142 3142 3142 3142 3142 3141 3141 3141 3140 3139 3139 3139 3138 3137 3137 3136 3135 3135 3134 3134 3133 3132 3132 3131 3130 3130 3129 3129 3128 3128 3128 3127 3127 3126 3126 3126 3126 3125 3125 3124 3124 3123 3123 3122 3121 3119 3118 3118 3117 3116 3115 3113 3112 3107 3103 3104 3105 3104 3102 3100 3099 3098 3097 3096 3096 3095 3094 3094 3094 3093 3093
3145 3145 3145 3145 3144 3144 3144 3144 3144 3144 3143 3143 3143 3143 3143 3142 3142 3142 3142 3142 3142 3141 3141 3141 3140 3139 3139 3139 3138 3137 3137 3136 3135 3135 3134 3133 3133 3132 3132 3131 3130 3130 3129 3129 3128 3128 3127 3127 3126 3126 3125 3125 3125 3125 3124 3124 3123 3122 3121 3121 3121 3120 3118 3117 3117 3116 3114 3113 3112 3111 3106 3101 3101 3102 3101 3099 3097 3096 3094 3094 3093 3092 3091 3091 3090 3090 3089 3089
3145 3145 3144 3143 3143 3143 3144 3144 3144 3143 3143 3143 3143 3142 3142 3142 3142 3142 3142 3142 3141 3141 3141 3140 3140 3139 3138 3138 3138 3137 3136 3135 3135 3134 3133 3133 3132 3131 3131 3130 3130 3129 3128 3128 3127 3127 3127 3126 3125 3125 3124 3125 3124 3124 3124 3123 3122 3122 3121 3120 3120 3119 3118 3116 3115 3114 3113 3111 3110 3109 3104 3099 3099 3100 3098 3096 3095 3093 3091 3091 3090 3089 3088 3087 3087 3086 3086 3086
3145 3144 3144 3143 3143 3143 3143 3143 3143 3143 3143 3142 3142 3142 3142 3141 3141 3141 3142 3141 3141 3141 3140 3140 3139 3139 3138 3138 3137 3136 3136 3135 3134 3133 3133 3132 3131 3131 3130 3130 3129 3128 3128 3127 3127 3126 3126 3126 3125 3124 3124 3124 3124 3123 3123 3122 3121 3121 3120 3119 3119 3118 3117 3115 3114 3113 3112 3110 3107 3106 3103 3098 3098 3098 3096 3094 3092 3090 3089 3088 3087 3086 3085 3085 3084 3084 3084 3083
3144 3144 3144 3144 3144 3144 3143 3143 3143 3142 3142 3142 3142 3142 3142 3141 3142 3141 3141 3141 3141 3141 3141 3140 3139 3139 3138 3138 3137 3136 3135 3135 3134 3133 3133 3132 3131 3130 3130 3129 3128 3128 3127 3126 3126 3125 3125 3125 3125 3124 3124 3124 3123 3122 3122 3121 3121 3120 3119 3118 3118 3116 3115 3114 3113 3111 3110 3108 3105 3104 3101 3097 3096 3096 3094 3092 3090 3088 3087 3086 3085 3084 3084 3083 3083 3082 3081 3081
3144 3145 3145 3145 3145 3144 3144 3143 3143 3142 3142 3142 3142 3142 3142 3142 3141 3141 3141 3141 3141 3141 3140 3140 3139 3139 3138 3138 3137 3136 3135 3134 3134 3133 3133 3132 3131 3130 3129 3129 3128 3127 3126 3125 3125 3124 3125 3125 3124 3124 3124 3123 3122 3122 3121 3120 3120 3119 3118 3118 3117 3115 3114 3113 3112 3110 3109 3106 3103 3102 3099 3096 3095 3093 3092 3091 3089 3087 3086 3085 3084 3083 3082 3082 3081 3081 3080 3079
3145 3145 3146 3146 3145 3145 3144 3144 3143 3143 3142 3142 3142 3142 3141 3142 3141 3141 3141 3141 3141 3140 3140 3140 3139 3139 3138 3138 3137 3136 3135 3134 3134 3133 3132 3131 3131 3130 3129 3128 3127 3126 3125 3125 3124 3124 3124 3124 3124 3123 3123 3122 3122 3121 3120 3120 3119 3118 3117 3116 3116 3115 3113 3112 3111 3109 3108 3105 3101 3100 3097 3094 3093 3091 3090 3089 3088 3086 3085 3084 3083 3082 3081 3080 3080 3079 3078 3078
3145 3145 3146 3146 3145 3145 3145 3144 3144 3143 3143 3142 3142 3141 3141 3141 3141 3141 3141 3141 3140 3140 3140 3140 3139 3139 3138 3137 3137 3136 3135 3134 3134 3133 3132 3131 3130 3129 3129 3128 3126 3126 3125 3125 3124 3124 3124 3124 3123 3123 3122 3122 3121 3121 3120 3119 3118 3117 3116 3115 3114 3114 3111 3110 3110 3108 3107 3104 3100 3098 3094 3092 3091 3090 3088 3088 3086 3085 3084 3083 3082 3081 3080 3079 3079 3078 3077 3077
3145 3145 3145 3145 3145 3145 3145 3144 3144 3143 3143 3142 3142 3141 3141 3141 3141 3141 3141 3141 3141 3141 3141 3140 3139 3139 3138 3137 3136 3136 3135 3134 3133 3132 3132 3131 3130 3129 3128 3128 3127 3126 3125 3125 3125 3124 3124 3123 3123 3122 3122 3121 3121 3120 3119 3118 3117 3116 3116 3114 3113 3112 3111 3109 3108 3107 3106 3102 3098 3095 3092 3089 3089 3088 3087 3086 3085 3084 3083 3081 3081 3079 3079 3078 3077 3077 3076 3075
3145 3145 3145 3145 3145 3145 3144 3144 3144 3143 3143 3142 3141 3141 3141 3140 3141 3141 3141 3141 3141 3141 3141 3140 3139 3139 3138 3137 3136 3135 3134 3134 3133 3132 3132 3131 3130 3129 3128 3128 3127 3126 3126 3125 3125 3124 3124 3123 3123 3122 3122 3121 3120 3119 3119 3118 3117 3115 3114 3113 3112 3111 3110 3108 3106 3103 3103 3101 3098 3094 3089 3086 3086 3086 3085 3085 3084 3082 3081 3079 3079 3078 3077 3077 3076 3075 3074 3073
3145 3145 3145 3145 3145 3145 3144 3144 3143 3143 3142 3142 3141 3141 3140 3141 3141 3141 3141 3141 3141 3141 3141 3140 3139 3138 3138 3137 3136 3135 3135 3134 3133 3132 3132 3131 3130 3129 3129 3128 3127 3127 3126 3125 3125 3124 3124 3123 3122 3122 3121 3120 3120 3119 3118 3117 3116 3115 3114 3113 3111 3110 3109 3107 3105 3102 3100 3099 3097 3095 3091 3085 3083 3084 3084 3083 3082 3080 3079 3077 3077 3076 3075 3075 3074 3073 3072 3072
3145 3145 3145 3145 3144 3144 3144 3144 3143 3143 3142 3141 3141 3141 3141 3141 3141 3141 3141 3141 3141 3141 3140 3140 3139 3139 3138 3137 3136 3135 3135 3134 3133 3133 3132 3131 3131 3130 3129 3128 3128 3127 3126 3126 3125 3124 3124 3123 3122 3122 3121 3120 3119 3118 3117 3116 3115 3114 3113 3112 3110 3109 3108 3106 3104 3102 3099 3098 3095 3096 3095 3088 3081 3081 3082 3081 3079 3078 3076 3075 3075 3074 3074 3073 3072 3071 3070 3070
3144 3144 3144 3144 3144 3144 3144 3143 3143 3142 3142 3141 3141 3141 3141 3141 3141 3141 3141 3141 3141 3141 3140 3140 3139 3139 3138 3137 3136 3135 3135 3134 3134 3133 3132 3132 3131 3130 3130 3129 3128 3127 3126 3126 3125 3124 3124 3123 3122 3121 3121 3120 3119 3118 3116 3115 3115 3114 3112 3111 3110 3108 3106 3105 3103 3101 3100 3097 3094 3094 3095 3091 3083 3078 3079 3078 3077 3076 3074 3074 3073 3072 3072 3071 3070 3069 3068 3067
3144 3144 3144 3144 3144 3143 3143 3143 3142 3142 3141 3141 3141 3141 3141 3141 3140 3140 3141 3141 3141 3141 3140 3140 3139 3139 3138 3137 3136 3136 3135 3135 3134 3133 3133 3132 3131 3131 3130 3129 3128 3127 3127 3126 3125 3124 3124 3123 3122 3121 3120 3119 3118 3117 3116 3115 3114 3113 3112 3110 3108 3107 3105 3103 3101 3101 3100 3097 3094 3093 3094 3093 3085 3077 3077 3076 3074 3074 3073 3072 3071 3070 3070 3069 3068 3067 3066 3065
3144 3144 3143 3143 3143 3143 3142 3142 3142 3141 3141 3141 3141 3141 3141 3140 3140 3140 3141 3141 3141 3141 3140 3140 3139 3139 3138 3137 3137 3137 3136 3135 3134 3134 3133 3132 3131 3131 3130 3129 3128 3127 3127 3126 3125 3124 3123 3122 3122 3121 3120 3119 3118 3117 3116 3115 3114 3112 3111 3109 3107 3105 3103 3102 3100 3099 3100 3097 3094 3092 3093 3093 3084 3074 3075 3074 3071 3071 3071 3070 3070 3069 3068 3067 3066 3065 3063 3062
3143 3143 3143 3143 3142 3142 3142 3141 3141 3141 3141 3141 3140 3141 3140 3140 3140 3140 3141 3141 3141 3140 3140 3140 3139 3139 3138 3138 3138 3137 3136 3135 3135 3134 3133 3132 3132 3131 3130 3129 3128 3127 3126 3126 3125 3124 3123 3122 3121 3120 3119 3119 3117 3116 3115 3114 3113 3111 3110 3108 3106 3104 3102 3101 3099 3098 3099 3096 3093 3092 3092 3094 3086 3073 3071 3073 3070 3070 3069 3068 3068 3066 3065 3064 3063 3063 3061 3059
3143 3142 3142 3142 3142 3141 3141 3141 3140 3140 3140 3140 3140 3140 3140 3140 3140 3140 3140 3141 3140 3140 3140 3140 3139 3139 3139 3138 3138 3137 3136 3136 3135 3134 3133 3133 3132 3131 3130 3129 3128 3127 3126 3125 3124 3123 3123 3121 3120 3120 3119 3118 3117 3116 3115 3113 3112 3111 3109 3106 3104 3102 3100 3099 3098 3098 3098 3094 3092 3092 3092 3094 3088 3074 3069 3071 3071 3069 3068 3066 3065 3064 3063 3062 3061 3060 3059 3058
3142 3142 3141 3141 3141 3141 3140 3140 3140 3140 3140 3140 3140 3140 3140 3140 3140 3140 3140 3140 3140 3140 3140 3140 3139 3139 3139 3138 3138 3137 3136 3135 3135 3134 3133 3133 3132 3131 3130 3129 3128 3127 3126 3125 3124 3123 3122 3121 3120 3119 3118 3117 3116 3115 3114 3113 3111 3110 3108 3106 3104 3102 3101 3099 3097 3097 3096 3093 3091 3092 3092 3091 3084 3074 3069 3069 3069 3068 3067 3065 3063 3062 3061 3060 3059 3058 3057 3056
3141 3141 3141 3141 3140 3140 3140 3139 3139 3139 3139 3139 3139 3139 3140 3140 3140 3139 3139 3140 3140 3140 3140 3140 3140 3139 3139 3138 3138 3137 3136 3135 3135 3134 3133 3133 3132 3131 3130 3129 3128 3127 3126 3125 3124 3122 3121 3120 3119 3118 3117 3116 3115 3114 3114 3112 3111 3109 3107 3107 3106 3105 3104 3101 3098 3095 3092 3092 3091 3091 3091 3087 3077 3072 3070 3067 3066 3066 3064 3063 3062 3061 3060 3059 3057 3056 3054 3054
3141 3140 3140 3140 3140 3139 3139 3139 3139 3139 3139 3139 3139 3139 3139 3139 3139 3139 3139 3139 3140 3140 3140 3140 3140 3139 3139 3138 3138 3137 3136 3135 3135 3134 3133 3132 3132 3131 3130 3129 3128 3127 3126 3125 3123 3122 3121 3119 3118 3117 3116 3115 3114 3113 3112 3111 3110 3108 3106 3106 3106 3106 3106 3103 3098 3094 3090 3090 3090 3089 3088 3082 3073 3070 3068 3066 3065 3064 3062 3061 3060 3059 3058 3057 3056 3054 3052 3050
3140 3140 3140 3139 3139 3139 3139 3138 3138 3138 3139 3139 3139 3139 3139 3139 3138 3139 3139 3139 3140 3140 3140 3140 3140 3139 3139 3138 3138 3137 3136 3135 3134 3134 3133 3132 3131 3130 3130 3129 3128 3127 3126 3125 3123 3122 3120 3118 3117 3116 3115 3114 3113 3112 3111 3110 3109 3107 3105 3105 3104 3104 3104 3101 3097 3093 3091 3090 3088 3084 3081 3076 3069 3066 3066 3065 3063 3061 3060 3059 3058 3057 3056 3055 3054 3053 3051 3048
3139 3139 3139 3139 3138 3138 3138 3138 3138 3138 3138 3138 3138 3139 3139 3138 3138 3139 3139 3139 3139 3139 3140 3139 3139 3139 3139 3138 3137 3136 3136 3135 3134 3133 3132 3132 3131 3130 3129 3128 3127 3127 3126 3125 3124 3123 3120 3117 3116 3115 3114 3113 3112 3110 3110 3108 3107 3106 3105 3104 3102 3102 3101 3099 3095 3092 3092 3089 3082 3077 3074 3071 3067 3063 3061 3062 3060 3058 3058 3056 3055 3055 3054 3053 3053 3050 3048 3045
3139 3138 3138 3138 3138 3138 3137 3137 3137 3137 3138 3138 3138 3138 3138 3138 3138 3138 3139 3139 3139 3139 3139 3139 3139 3139 3138 3137 3137 3136 3136 3135 3134 3133 3132 3131 3130 3129 3129 3128 3127 3126 3125 3124 3123 3122 3120 3116 3114 3114 3112 3111 3110 3109 3108 3107 3106 3104 3103 3102 3101 3100 3099 3099 3096 3092 3091 3088 3078 3071 3069 3069 3067 3061 3057 3059 3058 3056 3055 3054 3054 3053 3052 3051 3050 3048 3045 3042
3138 3138 3138 3137 3137 3137 3137 3137 3137 3137 3137 3138 3138 3138 3138 3138 3138 3138 3139 3139 3139 3139 3139 3139 3139 3138 3138 3137 3136 3136 3135 3134 3133 3132 3131 3130 3129 3129 3128 3127 3126 3125 3124 3123 3122 3121 3120 3115 3112 3112 3111 3109 3108 3107 3106 3105 3104 3102 3101 3100 3100 3100 3098 3098 3097 3092 3090 3087 3077 3067 3064 3065 3064 3059 3055 3056 3056 3055 3054 3053 3053 3052 3051 3049 3047 3044 3042 3038
3137 3137 3137 3136 3136 3136 3136 3136 3136 3136 3137 3137 3137 3137 3137 3137 3138 3138 3138 3139 3139 3139 3139 3138 3138 3138 3137 3137 3136 3136 3135 3134 3133 3132 3131 3130 3128 3128 3127 3126 3125 3124 3123 3122 3121 3119 3119 3116 3111 3109 3109 3108 3106 3105 3103 3102 3101 3100 3099 3098 3098 3098 3097 3095 3094 3091 3089 3087 3078 3068 3060 3058 3059 3056 3054 3055 3054 3053 3052 3051 3051 3050 3049 3047 3043 3040 3038 3035
3136 3136 3136 3135 3135 3135 3135 3135 3135 3136 3136 3137 3137 3137 3137 3137 3138 3138 3138 3139 3139 3139 3138 3138 3138 3137 3137 3136 3136 3135 3134 3133 3132 3131 3130 3129 3128 3127 3126 3125 3124 3123 3122 3120 3119 3118 3117 3115 3111 3107 3107 3106 3104 3103 3101 3099 3099 3097 3096 3096 3095 3095 3095 3093 3090 3088 3087 3086 3081 3073 3058 3049 3053 3055 3053 3053 3052 3051 3051 3050 3049 3048 3045 3043 3040 3037 3034 3031
3135 3135 3135 3134 3134 3134 3134 3135 3135 3136 3136 3136 3137 3137 3137 3137 3137 3138 3138 3138 3138 3138 3138 3138 3137 3137 3136 3136 3135 3134 3133 3132 3131 3131 3129 3128 3127 3126 3125 3124 3123 3122 3120 3119 3118 3117 3115 3113 3109 3105 3104 3103 3101 3101 3098 3096 3096 3094 3093 3093 3092 3093 3093 3092 3087 3083 3083 3081 3078 3075 3057 3040 3047 3055 3051 3051 3051 3050 3050 3048 3046 3045 3042 3040 3037 3034 3031 3028
3134 3134 3134 3133 3133 3133 3134 3134 3134 3135 3135 3136 3136 3136 3137 3137 3137 3138 3138 3138 3138 3138 3138 3137 3137 3136 3136 3135 3134 3133 3132 3131 3130 3129 3128 3127 3127 3125 3124 3123 3122 3120 3119 3117 3116 3115 3114 3111 3106 3102 3101 3100 3099 3097 3095 3094 3093 3092 3091 3090 3089 3089 3089 3089 3086 3080 3080 3077 3073 3074 3060 3040 3042 3051 3049 3049 3050 3048 3048 3046 3043 3041 3038 3035 3033 3030 3027 3025
3133 3133 3133 3132 3133 3133 3133 3134 3134 3135 3135 3135 3135 3136 3136 3136 3137 3137 3137 3137 3137 3137 3137 3136 3136 3135 3135 3134 3133 3132 3132 3130 3128 3128 3127 3126 3125 3124 3123 3121 3120 3119 3117 3115 3114 3113 3112 3109 3104 3098 3096 3096 3095 3094 3093 3092 3091 3090 3089 3088 3087 3086 3085 3085 3083 3079 3077 3072 3068 3072 3062 3042 3040 3047 3046 3047 3047 3046 3045 3043 3039 3035 3032 3030 3028 3025 3023 3021
3132 3132 3132 3132 3132 3132 3133 3133 3134 3134 3134 3135 3135 3135 3135 3136 3136 3136 3137 3137 3137 3136 3136 3136 3135 3134 3134 3133 3132 3131 3131 3129 3127 3126 3125 3124 3123 3122 3121 3120 3118 3117 3116 3114 3112 3111 3110 3108 3104 3099 3094 3092 3090 3090 3089 3089 3089 3088 3087 3087 3085 3084 3084 3082 3080 3079 3075 3066 3064 3068 3058 3043 3041 3045 3044 3045 3045 3042 3041 3038 3034 3031 3028 3025 3023 3021 3019 3016
3131 3131 3131 3131 3131 3132 3132 3133 3133 3133 3134 3134 3134 3134 3135 3135 3136 3136 3136 3136 3136 3136 3135 3135 3134 3133 3132 3132 3131 3130 3130 3128 3126 3124 3124 3123 3122 3120 3119 3118 3117 3115 3114 3112 3110 3108 3106 3104 3103 3101 3099 3096 3091 3089 3088 3087 3087 3085 3084 3085 3083 3081 3082 3079 3077 3077 3070 3062 3060 3059 3049 3040 3041 3043 3042 3043 3042 3038 3035 3032 3029 3027 3023 3021 3018 3016 3014 3011
3131 3130 3130 3130 3131 3131 3132 3132 3132 3132 3133 3133 3133 3134 3134 3134 3135 3135 3135 3135 3135 3135 3134 3133 3133 3132 3131 3130 3129 3128 3128 3127 3125 3123 3122 3121 3120 3118 3117 3116 3114 3113 3111 3109 3107 3105 3102 3099 3099 3098 3097 3095 3091 3089 3088 3087 3084 3082 3080 3079 3078 3078 3077 3076 3075 3070 3063 3061 3056 3049 3043 3040 3039 3040 3040 3038 3037 3034 3029 3026 3024 3021 3018 3016 3014 3011 3009 3007
3130 3130 3130 3130 3130 3131 3131 3131 3132 3132 3132 3133 3133 3133 3134 3134 3134 3134 3134 3134 3133 3133 3133 3132 3132 3131 3130 3129 3128 3127 3126 3125 3123 3121 3120 3119 3117 3116 3114 3113 3112 3110 3108 3107 3105 3103 3099 3095 3094 3093 3090 3089 3088 3086 3086 3085 3081 3078 3076 3073 3072 3073 3071 3070 3067 3061 3060 3062 3051 3041 3043 3041 3037 3038 3039 3035 3032 3028 3024 3022 3019 3016 3014 3012 3010 3007 3004 3001
3129 3129 3130 3130 3130 3130 3130 3131 3131 3131 3131 3132 3132 3132 3133 3133 3133 3133 3133 3133 3132 3132 3131 3130 3130 3129 3128 3127 3126 3125 3124 3122 3120 3119 3118 3117 3115 3113 3111 3110 3108 3106 3105 3104 3102 3101 3098 3092 3090 3089 3085 3084 3084 3082 3081 3080 3076 3073 3072 3069 3068 3068 3066 3063 3059 3056 3059 3058 3045 3039 3043 3039 3034 3037 3036 3031 3028 3024 3021 3019 3016 3013 3011 3008 3006 3002 2999 2996
3129 3129 3129 3129 3129 3129 3130 3130 3130 3130 3131 3131 3131 3132 3132 3132 3132 3132 3132 3131 3131 3131 3130 3129 3129 3128 3126 3125 3124 3123 3122 3120 3117 3116 3115 3113 3112 3110 3108 3106 3105 3103 3102 3100 3099 3098 3095 3090 3088 3086 3081 3078 3080 3079 3077 3075 3071 3069 3067 3065 3064 3062 3060 3058 3054 3052 3054 3050 3042 3041 3041 3035 3034 3034 3031 3027 3025 3021 3018 3015 3012 3010 3007 3004 3001 2997 2993 2990
3128 3128 3128 3128 3128 3129 3129 3129 3129 3129 3130 3130 3130 3131 3131 3131 3131 3130 3130 3130 3129 3129 3128 3127 3127 3126 3124 3123 3122 3121 3120 3118 3115 3114 3112 3110 3108 3107 3105 3103 3101 3100 3098 3097 3095 3094 3092 3088 3086 3084 3078 3074 3075 3075 3072 3071 3068 3065 3062 3061 3060 3058 3055 3054 3051 3049 3048 3044 3041 3040 3036 3033 3033 3031 3026 3024 3021 3017 3014 3011 3008 3006 3003 2999 2995 2991 2988 2985
3127 3127 3127 3127 3128 3128 3128 3128 3128 3128 3129 3129 3129 3129 3129 3129 3129 3129 3129 3128 3128 3127 3127 3126 3125 3124 3122 3121 3119 3118 3117 3115 3113 3111 3110 3108 3105 3104 3102 3100 3098 3096 3094 3093 3092 3090 3089 3086 3083 3083 3077 3071 3071 3072 3069 3068 3065 3061 3058 3057 3056 3054 3053 3051 3049 3047 3044 3041 3039 3036 3032 3029 3028 3025 3022 3019 3016 3013 3010 3007 3004 3001 2997 2993 2989 2985 2982 2979
3126 3126 3126 3127 3127 3127 3127 3127 3127 3128 3128 3128 3128 3128 3128 3128 3128 3127 3127 3126 3126 3126 3125 3123 3122 3121 3120 3118 3117 3115 3114 3112 3110 3109 3107 3105 3103 3101 3099 3097 3095 3093 3091 3091 3089 3087 3086 3083 3081 3081 3077 3069 3069 3069 3066 3064 3061 3057 3055 3054 3053 3051 3050 3048 3046 3044 3042 3039 3036 3032 3029 3026 3023 3021 3017 3014 3011 3009 3005 3003 3000 2995 2991 2988 2984 2980 2977 2973